N447BF MDJB-MDJB

Flight info

Callsign N447BF
Flight time N/A
Altitude 5000
Route VFR
Aircraft B407/L-SDGRY/S

Departure

Time 2026-04-24 18:59
Airport La Isabela International Airport (MDJB)

Arrival

Time N/A
Airport La Isabela International Airport (MDJB)
Time Latitude Longitude Altitude Speed Heading
2026-04-24 18:54 18.45366 -69.92079 51 ft 0 kts 94°
2026-04-24 18:57 18.45366 -69.92070 54 ft 0 kts 94°
2026-04-24 18:57 18.45366 -69.92077 51 ft 0 kts 95°
2026-04-24 18:58 18.45376 -69.92068 61 ft 1 kts 129°
2026-04-24 18:58 18.45334 -69.92077 93 ft 33 kts 199°
2026-04-24 18:58 18.45020 -69.91979 210 ft 62 kts 130°
2026-04-24 18:59 18.45079 -69.91408 325 ft 103 kts 77°
2026-04-24 18:59 18.45345 -69.90600 461 ft 126 kts 74°
2026-04-24 18:59 18.45645 -69.89728 600 ft 124 kts 69°
2026-04-24 18:59 18.45973 -69.88880 802 ft 122 kts 70°
2026-04-24 19:00 18.46243 -69.88050 981 ft 122 kts 78°
2026-04-24 19:00 18.46381 -69.87139 1110 ft 125 kts 86°
2026-04-24 19:00 18.46414 -69.86220 1171 ft 127 kts 91°
2026-04-24 19:00 18.46450 -69.85321 1313 ft 118 kts 89°
2026-04-24 19:01 18.46475 -69.84415 1423 ft 130 kts 91°
2026-04-24 19:01 18.46470 -69.83459 1476 ft 130 kts 93°
2026-04-24 19:01 18.46427 -69.82493 1492 ft 133 kts 96°
2026-04-24 19:01 18.46373 -69.81521 1521 ft 134 kts 96°
2026-04-24 19:02 18.46326 -69.80869 1542 ft 133 kts 96°
2026-04-24 19:02 18.46303 -69.80326 1535 ft 137 kts 95°
2026-04-24 19:02 18.46309 -69.79538 1516 ft 132 kts 91°
2026-04-24 19:02 18.46311 -69.78550 1527 ft 135 kts 94°
2026-04-24 19:03 18.46220 -69.77563 1562 ft 138 kts 102°
2026-04-24 19:03 18.46084 -69.76591 1587 ft 137 kts 102°
2026-04-24 19:03 18.46017 -69.75682 1735 ft 124 kts 94°
2026-04-24 19:03 18.45961 -69.74761 1751 ft 127 kts 95°
2026-04-24 19:04 18.45900 -69.73829 1748 ft 128 kts 95°
2026-04-24 19:04 18.45833 -69.72897 1742 ft 130 kts 96°
2026-04-24 19:04 18.45757 -69.71947 1744 ft 130 kts 97°
2026-04-24 19:04 18.45673 -69.70997 1762 ft 131 kts 97°
2026-04-24 19:05 18.45575 -69.70035 1777 ft 133 kts 98°
2026-04-24 19:05 18.45467 -69.69051 1800 ft 138 kts 98°
2026-04-24 19:05 18.45356 -69.68040 1793 ft 140 kts 98°
2026-04-24 19:05 18.45242 -69.67032 1785 ft 141 kts 98°
2026-04-24 19:06 18.45120 -69.66002 1781 ft 142 kts 99°
2026-04-24 19:06 18.44990 -69.64963 1781 ft 143 kts 99°
2026-04-24 19:06 18.44852 -69.63922 1781 ft 144 kts 100°
2026-04-24 19:06 18.44707 -69.62876 1782 ft 145 kts 101°
2026-04-24 19:07 18.44555 -69.61825 1783 ft 146 kts 101°
2026-04-24 19:07 18.44396 -69.60767 1783 ft 147 kts 101°
2026-04-24 19:07 18.44284 -69.60054 1783 ft 147 kts 102°
2026-04-24 19:07 18.44052 -69.58639 1776 ft 147 kts 102°
2026-04-24 19:08 18.43868 -69.57584 1773 ft 146 kts 103°
2026-04-24 19:08 18.43676 -69.56532 1771 ft 146 kts 103°
2026-04-24 19:08 18.43535 -69.55462 1778 ft 148 kts 97°
2026-04-24 19:08 18.43471 -69.54387 1784 ft 148 kts 96°
2026-04-24 19:09 18.43408 -69.53334 1753 ft 142 kts 97°
2026-04-24 19:09 18.43327 -69.52291 1777 ft 144 kts 98°
2026-04-24 19:09 18.43244 -69.51237 1785 ft 144 kts 98°
2026-04-24 19:09 18.43159 -69.50186 1788 ft 144 kts 98°
2026-04-24 19:10 18.43072 -69.49139 1789 ft 145 kts 98°
2026-04-24 19:10 18.42984 -69.48082 1789 ft 145 kts 98°
2026-04-24 19:10 18.42897 -69.47056 1788 ft 145 kts 98°
2026-04-24 19:10 18.42810 -69.46046 1788 ft 145 kts 98°
2026-04-24 19:11 18.42713 -69.44946 1788 ft 146 kts 98°
2026-04-24 19:11 18.42623 -69.43937 1788 ft 146 kts 99°
2026-04-24 19:11 18.42526 -69.42870 1788 ft 146 kts 99°
2026-04-24 19:11 18.42430 -69.41833 1788 ft 146 kts 99°
2026-04-24 19:12 18.42333 -69.40790 1788 ft 146 kts 99°
2026-04-24 19:12 18.42232 -69.39728 1788 ft 147 kts 99°
2026-04-24 19:12 18.42129 -69.38658 1788 ft 147 kts 99°
2026-04-24 19:12 18.42025 -69.37582 1789 ft 147 kts 99°
2026-04-24 19:13 18.41953 -69.36872 1789 ft 148 kts 99°
2026-04-24 19:13 18.41814 -69.35440 1791 ft 149 kts 98°
2026-04-24 19:13 18.41753 -69.34352 1785 ft 148 kts 96°
2026-04-24 19:13 18.41710 -69.33264 1786 ft 148 kts 96°
2026-04-24 19:14 18.41668 -69.32187 1789 ft 148 kts 96°
2026-04-24 19:14 18.41625 -69.31106 1792 ft 148 kts 96°
2026-04-24 19:14 18.41582 -69.30038 1793 ft 148 kts 96°
2026-04-24 19:14 18.41541 -69.29022 1793 ft 148 kts 96°
2026-04-24 19:15 18.41499 -69.27987 1793 ft 148 kts 96°
2026-04-24 19:15 18.41454 -69.26908 1793 ft 148 kts 96°
2026-04-24 19:15 18.41410 -69.25828 1792 ft 148 kts 96°
2026-04-24 19:15 18.41365 -69.24744 1792 ft 148 kts 96°
2026-04-24 19:16 18.41274 -69.22580 1792 ft 148 kts 96°
2026-04-24 19:16 18.41228 -69.21494 1792 ft 148 kts 96°
2026-04-24 19:16 18.41181 -69.20401 1793 ft 148 kts 96°
2026-04-24 19:17 18.41134 -69.19315 1788 ft 148 kts 96°
2026-04-24 19:17 18.41089 -69.18259 1760 ft 142 kts 97°
2026-04-24 19:17 18.41030 -69.17250 1834 ft 139 kts 99°
2026-04-24 19:17 18.40955 -69.16219 1779 ft 141 kts 97°
2026-04-24 19:18 18.40898 -69.15210 1792 ft 137 kts 98°
2026-04-24 19:18 18.40835 -69.14200 1802 ft 138 kts 98°
2026-04-24 19:18 18.40775 -69.13187 1799 ft 140 kts 97°
2026-04-24 19:18 18.40720 -69.12150 1797 ft 144 kts 96°
2026-04-24 19:19 18.40676 -69.11101 1786 ft 145 kts 95°
2026-04-24 19:19 18.40640 -69.10044 1778 ft 143 kts 95°
2026-04-24 19:19 18.40602 -69.08995 1786 ft 142 kts 96°
2026-04-24 19:19 18.40560 -69.07971 1793 ft 140 kts 96°
2026-04-24 19:20 18.40514 -69.06950 1798 ft 139 kts 97°
2026-04-24 19:20 18.40467 -69.05934 1802 ft 138 kts 97°
2026-04-24 19:20 18.40419 -69.04943 1803 ft 138 kts 97°
2026-04-24 19:20 18.40373 -69.03928 1798 ft 138 kts 96°
2026-04-24 19:21 18.40331 -69.02915 1794 ft 140 kts 96°
2026-04-24 19:21 18.40294 -69.01886 1794 ft 141 kts 95°
2026-04-24 19:21 18.40262 -69.00866 1795 ft 142 kts 95°
2026-04-24 19:21 18.40232 -68.99814 1797 ft 142 kts 95°
2026-04-24 19:22 18.40213 -68.99117 1797 ft 142 kts 94°
2026-04-24 19:22 18.40285 -68.97721 1797 ft 144 kts 87°
2026-04-24 19:22 18.40428 -68.96688 1797 ft 144 kts 83°
2026-04-24 19:22 18.40624 -68.95651 1797 ft 144 kts 81°
2026-04-24 19:23 18.40856 -68.94617 1797 ft 145 kts 79°
2026-04-24 19:23 18.41114 -68.93586 1797 ft 145 kts 78°
2026-04-24 19:23 18.41383 -68.92578 1797 ft 145 kts 77°
2026-04-24 19:23 18.41667 -68.91557 1797 ft 145 kts 77°
2026-04-24 19:24 18.41959 -68.90537 1797 ft 145 kts 76°
2026-04-24 19:24 18.42255 -68.89520 1797 ft 145 kts 76°
2026-04-24 19:24 18.42552 -68.88509 1797 ft 145 kts 76°
2026-04-24 19:24 18.42851 -68.87491 1797 ft 145 kts 76°
2026-04-24 19:25 18.43153 -68.86467 1797 ft 145 kts 76°
2026-04-24 19:25 18.43452 -68.85451 1797 ft 145 kts 76°
2026-04-24 19:25 18.43747 -68.84443 1797 ft 145 kts 76°
2026-04-24 19:25 18.44047 -68.83417 1797 ft 145 kts 76°
2026-04-24 19:26 18.44342 -68.82398 1797 ft 145 kts 76°
2026-04-24 19:26 18.44635 -68.81383 1797 ft 145 kts 76°
2026-04-24 19:26 18.44924 -68.80372 1797 ft 145 kts 77°
2026-04-24 19:26 18.45215 -68.79348 1797 ft 145 kts 77°
2026-04-24 19:27 18.45504 -68.78326 1797 ft 145 kts 77°
2026-04-24 19:27 18.45786 -68.77323 1797 ft 145 kts 77°
2026-04-24 19:27 18.46078 -68.76278 1797 ft 145 kts 77°
2026-04-24 19:27 18.46360 -68.75265 1797 ft 145 kts 77°
2026-04-24 19:28 18.46645 -68.74239 1797 ft 146 kts 77°
2026-04-24 19:28 18.46927 -68.73218 1797 ft 146 kts 77°
2026-04-24 19:28 18.47212 -68.72185 1797 ft 146 kts 77°
2026-04-24 19:28 18.47492 -68.71167 1797 ft 146 kts 77°
2026-04-24 19:29 18.48052 -68.69117 1797 ft 146 kts 77°
2026-04-24 19:29 18.48330 -68.68094 1797 ft 146 kts 77°
2026-04-24 19:29 18.48606 -68.67074 1797 ft 146 kts 77°
2026-04-24 19:30 18.48886 -68.66041 1797 ft 145 kts 77°
2026-04-24 19:30 18.49164 -68.65014 1797 ft 145 kts 77°
2026-04-24 19:30 18.49440 -68.63991 1797 ft 145 kts 78°
2026-04-24 19:30 18.49713 -68.62975 1797 ft 145 kts 78°
2026-04-24 19:31 18.49988 -68.61950 1797 ft 145 kts 78°
2026-04-24 19:31 18.50262 -68.60927 1797 ft 145 kts 78°
2026-04-24 19:31 18.50537 -68.59899 1797 ft 145 kts 78°
2026-04-24 19:31 18.50808 -68.58881 1797 ft 145 kts 78°
2026-04-24 19:32 18.51083 -68.57848 1797 ft 145 kts 78°
2026-04-24 19:32 18.51353 -68.56830 1797 ft 145 kts 78°
2026-04-24 19:32 18.51622 -68.55811 1797 ft 145 kts 78°
2026-04-24 19:32 18.51803 -68.55127 1797 ft 145 kts 78°
2026-04-24 19:33 18.52073 -68.54102 1797 ft 145 kts 78°
2026-04-24 19:33 18.52344 -68.53076 1797 ft 145 kts 78°
2026-04-24 19:33 18.52668 -68.52076 1780 ft 143 kts 64°
2026-04-24 19:33 18.53648 -68.51254 1805 ft 135 kts 22°
2026-04-24 19:34 18.53974 -68.51174 1811 ft 134 kts 12°
2026-04-24 19:34 18.54050 -68.51165 1812 ft 134 kts
2026-04-24 19:34 18.54607 -68.51060 1681 ft 126 kts 17°
2026-04-24 19:34 18.55167 -68.50490 1715 ft 129 kts 57°
2026-04-24 19:35 18.55419 -68.49938 1738 ft 132 kts 72°
2026-04-24 19:35 18.55585 -68.48959 1726 ft 139 kts 86°
2026-04-24 19:35 18.55647 -68.47921 1684 ft 142 kts 89°
2026-04-24 19:35 18.55660 -68.47555 1669 ft 143 kts 90°
2026-04-24 19:36 18.55696 -68.46511 1587 ft 143 kts 90°
2026-04-24 19:36 18.55739 -68.45494 1568 ft 139 kts 88°
2026-04-24 19:36 18.55810 -68.44482 1494 ft 140 kts 88°
2026-04-24 19:36 18.55901 -68.43438 1375 ft 144 kts 86°
2026-04-24 19:37 18.56018 -68.42382 1212 ft 146 kts 86°
2026-04-24 19:37 18.56124 -68.41319 966 ft 147 kts 88°
2026-04-24 19:37 18.56191 -68.40246 869 ft 147 kts 89°
2026-04-24 19:37 18.56272 -68.39187 764 ft 142 kts 90°
2026-04-24 19:38 18.56341 -68.38201 441 ft 126 kts 89°
2026-04-24 19:38 18.56402 -68.37345 271 ft 111 kts 89°
2026-04-24 19:38 18.56452 -68.36574 221 ft 91 kts 89°
2026-04-24 19:38 18.56518 -68.36090 143 ft 43 kts 93°
2026-04-24 19:39 18.56532 -68.35869 65 ft 18 kts 137°
2026-04-24 19:39 18.56495 -68.35837 59 ft 7 kts 180°
2026-04-24 19:39 18.56455 -68.35825 57 ft 2 kts 105°
2026-04-24 19:39 18.56457 -68.35823 51 ft 0 kts 92°